NETSAT-1

Last updated on Wed Oct 29 2025 00:03:53 GMT+0000 (Coordinated Universal Time)

1 46506U 20068W 25301.48688165 .00017134 00000+0 64020-3 0 9994 2 46506 97.8644 283.0889 0008779 95.7427 264.4812 15.27402655279848
UTC large
Height (km)
Speed (km/s)
/
Latitude / Longitude
Inclination (degrees)
Orbital Period (minutes)
Azimuth
Elevation
Range (km)
Doppler Factor

Next 0 passes for location: London (51.5072 / 0.1276)

Sorry there are no passes over London.